Погода Луговая

Погода Луговая : погода сейчас, прогноз погоды и архив. Всё, что Вы хотите узнать о погоде Луговая!

Хотите узнать прогноз погоды Луговая? Тогда Вам сюда: Погода Луговая

Поиск расширенной информации на нашем сайте:

Другие новости

Новости СМИ2

Главная страница сайта

Новости сайта

03.07.2017

Напоминаем, что на нашем специализированном сайте Метеоцентр.Азия вы можете получить высокодетализированные автоматические прогнозы погоды по пунктам России, СНГ и мира в авиационном формате (включающие направление и скорость ветра, видимость, явления погоды, количество и форму облачности, нижнюю и верхнюю границу облачности).

Рекомендуем: Стихи и поздравления на заказ заказ стихов.

Погода Луговая - сегодня

Время (UTC), дата Ветер
(°,м/с) 
Видим.   Явления Облачность Т
(°С)
Тd
(°С)
f(%) Тe
(°С)
Pmin
(гПа)
dP
(гПа)
Po
(мм)
O2
(г/м3)
Тmin Tmax R s Состояние
почвы
18 18.01.18 тихо ()   10 км    ясно 
-11.4 -14.9 75 -11  1028.4  -0.9  705  297    -0.7       
21 18.01.18 тихо ()   10 км    ясно 
-10.4 -14 75 -10  1028.1  705  296           
00 19.01.18 тихо ()   10 км    5/0 верхняя 
[Ci fib]
-8.5 -12.3 74 -9  1026.7  -0.7  704  294           
03 19.01.18 тихо ()   20000 м    8/5 1000 м верхняя 
[Sc|Ci fib]
-6.8 -11 72 -7  1026.5  0.4  704  292        22  равномерный
сухой снег
100% 
06 19.01.18 тихо ()   20000 м    6/0 верхняя 
[Ci fib]
+1.5 -3.6 69 +2  1025.4  1.5  705  283  -11.5         
09 19.01.18 тихо ()   20000 м    8/0 верхняя 
[Ci fib]
+2.3 -4.8 59 +2  1024.9  -0.2  705  282           
12 19.01.18 020 (С) 20000 м    10/0 средняя 
[As trans]
-1.3 -7.2 64 -1  1027.6  1.4  706  287           
15 19.01.18 тихо ()   10 км    8/0 средняя 
[Ac trans]
-4.9 -9.4 71 -5  1028.9  706  291    +2.7       
18 19.01.18 тихо ()   10 км    4/0 средняя 
[Ac trans]
-4.7 -9.1 71 -5  1028.3  -0.4  706  290    +2.7       
21 19.01.18 тихо ()   10 км    5/0 средняя 
[Ac trans]
-4.5 -8.8 72 -5  1028.4  0.1  706  290           
00 20.01.18 тихо ()   10 км    ясно 
-5.8 -9.7 74 -6  1028  -0.7  706  291           
03 20.01.18 180 (Ю) 20000 м    4/0 средняя 
[Ac trans]
-7.1 -10.5 77 -7  1028.2  -0.3  705  293        20  равномерный
сухой снег
100% 
06 20.01.18 тихо ()   20000 м    3/0 верхняя 
[Ci fib]
+5.4 -0.7 65 +5  1023.6  -0.3  705  279  -7.2         
09 20.01.18 тихо ()   20000 м    ясно 
+7.8 +0 58 +8  1021.3  -1.5  704  276           
12 20.01.18 тихо ()   20000 м    ясно 
+2 -3.7 66 +2  1023.8  0.7  705  282           
15 20.01.18 тихо ()   10 км    ясно 
-1.6 -6.8 68 -2  1024.9  -0.1  704  286    +8.2       
18 20.01.18 тихо ()   10 км    ясно 
-4.8 -9.2 71 -5  1023.8  -2.1  703  289    +8.2       
21 20.01.18 тихо ()   10 км    ясно 
-7.4 -11.3 74 -7  1023.8  -0.8  702  292           
00 21.01.18 тихо ()   10 км    ясно 
-8.6 -12.4 74 -9  1023.6  -0.6  702  293           
03 21.01.18 180 (Ю) 20000 м    3/0 верхняя 
[Ci fib]
-7 -11.3 71 -7  1023  702  291        17  равномерный
сухой снег
100% 
06 21.01.18 тихо ()   20000 м    ясно 
+1.7 -3.3 69 +2  1019.6  -0.4  702  281  -8.8         
09 21.01.18 тихо ()   20000 м    4/0 верхняя 
[Ci fib]
+4.4 -3.4 57 +4  1017.2  -1.4  701  278           
12 21.01.18 тихо ()   20000 м    6/0 верхняя 
[Ci fib]
-1.2 -6.3 68 -1  1019.3  0.3  701  284           
15 21.01.18 250 (З) 10 км    3/0 верхняя 
[Ci fib]
-5.4 -9.6 72 -5  1021.2  0.3  701  289    +5       
18 21.01.18 тихо ()   10 км    ясно 
-7.5 -11.5 73 -8  1021.6  -0.2  701  291    +5       
Время (UTC), дата Ветер
(°,м/с) 
Видим.   Явления Облачность Т
(°С)
Тd
(°С)
f(%) Тe
(°С)
Pmin
(гПа)
dP
(гПа)
Po
(мм)
O2
(г/м3)
Тmin Tmax R s Состояние
почвы

Для получения пояснительной информации подведите курсор к названию столбца.

ПОГОДА Луговая - архив

Всё, что Вы хотите узнать о погоде Луговая - удобно и подробно!

Выберите нужную дату (начиная с 1 января 2015* года) и нажмите кнопку "Найти".
Будут отображены архивные сводки погоды по пункту Луговая, начиная с указанной даты.


Отображать данные в формате CSV (для использования в таблицах Excel)


Внимание! Наш архив погоды предназначен исключительно для личного некоммерческого использования в познавательных целях. Если Вам необходимы официальные справки о состоянии погоды (для производственных, юридических, коммерческих и т.п. целей), обращайтесь в органы Росгидромета.

*Примечание: данная дата относится к архиву по метеостанциям СССР (Россия, СНГ, Балтия).
Архив по метеостанциям Зарубежной Европы и Азии (кроме Китая) хранится 10 дней, по другим регионам земного шара (Китай, Африка, Америка, Австралия, Океания) - 1 день.

Луговая - район местоположения метеостанции


Название, широта, долгота, высота метеостанции:
Луговая 42.9°ш. 72.8°д. 683 м над ур. моря [Казахстан]

Дополнительная информация

В oтличие oт бoльшинства пoгoдных сайтoв мы публикуем пoдрoбную метеoинфoрмацию в детальнoм прoфессиoнальнoм фoрмате.

Характеристики температуры и влажнoсти вoздуха измеряются на высoте 2 м в тени вдали oт зданий и деревьев.
Скoрoсть ветра измеряется на высoте 10 м (на урoвне рoста челoвека скoрoсть ветра ниже в 1.5-2 раза). Если метеoстанция нахoдится в гoрoде или в лесу, тo скoрoсть ветра занижена на 2-4 м/с пo сравнению с oткрытым местoм. Скoрoсть ветра над акватoриями крупных рек и oзёр, а также на вершинах хoлмoв на 2-5 м/с выше, чем в oбычных услoвиях.
Атмoсфернoе давление в разных тoчках местнoсти мoжет значительнo oтличаться oт давления на метеoстанции, в зависимoсти oт услoвий рельефа (при пoдъёме на 10 м давление пoнижается примернo на 1 мм рт.ст.).